This is the latest recevied weather packets stored in our database for station/object JE0GNV-13. If no packets are shown the sender has not sent any weather packets the latest 10 day(s).
| Time | Temp. | Humidity | Pressure | Rain* | Wind** | Luminosity | Snow |
|---|---|---|---|---|---|---|---|
| 1777930201 | 4.44° C | 83% | 1016.2 hPa | 0 mm | - | - | - |
| 1777929601 | 4.44° C | 83% | 1016.1 hPa | 0 mm | - | - | - |
| 1777929001 | 3.89° C | 84% | 1016.1 hPa | 0 mm | - | - | - |
| 1777928401 | 3.89° C | 85% | 1015.7 hPa | 0 mm | - | - | - |
| 1777927801 | 3.33° C | 86% | 1015.5 hPa | 0 mm | - | - | - |
| 1777927202 | 3.33° C | 84% | 1015.4 hPa | 0 mm | - | - | - |
| 1777926600 | 3.89° C | 83% | 1015.1 hPa | 0 mm | - | - | - |
| 1777926000 | 3.89° C | 82% | 1014.9 hPa | 0 mm | - | - | - |
| 1777925400 | 3.89° C | 82% | 1014.9 hPa | 0 mm | - | - | - |
| 1777924800 | 3.89° C | 81% | 1014.6 hPa | 0 mm | - | - | - |
| 1777924200 | 3.89° C | 81% | 1014.4 hPa | 0 mm | - | - | - |
| 1777923600 | 4.44° C | 82% | 1014.3 hPa | 0 mm | - | - | - |
| 1777923001 | 4.44° C | 81% | 1014.2 hPa | 0 mm | - | - | - |
| 1777922400 | 4.44° C | 80% | 1014.1 hPa | 0 mm | - | - | - |
| 1777921800 | 4.44° C | 79% | 1014.1 hPa | 0 mm | - | - | - |
| 1777921201 | 4.44° C | 77% | 1013.8 hPa | 0 mm | - | - | - |
| 1777920601 | 5° C | 77% | 1013.6 hPa | 0 mm | - | - | - |
| 1777920001 | 5° C | 76% | 1013.6 hPa | 0 mm | - | - | - |
| 1777919401 | 5.56° C | 75% | 1013.3 hPa | 0 mm | - | - | - |
| 1777918801 | 5.56° C | 73% | 1013.1 hPa | 0 mm | - | - | - |
| 1777918200 | 6.11° C | 71% | 1013.1 hPa | 0 mm | - | - | - |
| 1777917601 | 6.11° C | 68% | 1012.7 hPa | 0 mm | - | - | - |
| 1777917001 | 6.11° C | 67% | 1012.6 hPa | 0 mm | - | - | - |
| 1777916401 | 6.67° C | 69% | 1012.6 hPa | 0 mm | - | - | - |
| 1777915801 | 6.67° C | 66% | 1012.1 hPa | 0 mm | - | - | - |
* Rain latest hour (hover to see other rain measurements)
** Current wind speed in m/s (hover to see current wind gust speed)